Home   Weather   Escondido   Past weeks

Flag for USA Past Weather in Escondido, California, USA — Yesterday and Last 2 Weeks

Now
59 °F

Clear.


Feels Like: 59 °F
Forecast: 60 / 84 °F
Wind: No wind

Location: Ramona Airport

Current Time: Oct 1, 2016 at 1:44:30 AM

Latest Report: Oct 1, 2016 at 12:53 AM


Visibility: 10 mi

Pressure: 29.97 "Hg

Humidity: 75%

Dew Point: 51 °F

Location of EscondidoLocation

Past Weather in Escondido — Graph

°F

Escondido Temperature Yesterday

Maximum temperature yesterday: 91 °F (at 1:53 PM)
Minimum temperature yesterday: 57 °F (at 4:53 AM)
Average temperature yesterday: 73 °F

High & Low Weather Summary for the Past Weeks

 TemperatureHumidityPressure
High100 °F (Sep 18, 12:53 PM)97% (Sep 20, 8:00 PM)30.03 "Hg (Sep 20, 8:00 PM)
Low44 °F (Sep 16, 5:53 AM)6% (Sep 25, 1:53 PM)29.84 "Hg (Sep 21, 4:53 PM)
Average71 °F57%29.93 "Hg
* Reported Sep 15 11:53 PM — Sep 30 11:53 PM, Escondido, Weather by CustomWeather, © 2016

Note: Actual official high and low records may vary slightly from our data, if they occured in-between our weather recording intervals... More about our weather records

Advertising

Escondido Weather History for the Previous 24 Hours

Scroll right to see more
 ConditionsComfort  
Time TempWeatherWind HumidityBarometerVisibility
11:53 PM
Fri, Sep 30
60 °FClear.No wind72%29.98 "Hg10 mi
10:53 PM62 °FClear.No wind67%29.97 "Hg10 mi
9:53 PM65 °FClear.No wind66%29.96 "Hg10 mi
8:53 PM67 °FClear.No wind59%29.96 "Hg10 mi
7:53 PM72 °FClear.No wind52%29.95 "Hg10 mi
6:53 PM74 °FClear.No wind48%29.95 "Hg10 mi
5:53 PM81 °FSunny.12 mph38%29.93 "Hg10 mi
4:53 PM85 °FSunny.10 mph32%29.93 "Hg10 mi
3:53 PM88 °FSunny.13 mph29%29.93 "Hg10 mi
2:53 PM89 °FScattered clouds.14 mph28%29.95 "Hg10 mi
1:53 PM91 °FScattered clouds.13 mph26%29.96 "Hg10 mi
12:53 PM90 °FSunny.7 mph27%29.99 "Hg10 mi
11:53 AM89 °FSunny.7 mph28%30.01 "Hg10 mi
10:53 AM88 °FSunny.8 mph26%30.02 "Hg10 mi
9:53 AM86 °FSunny.8 mph31%30.02 "Hg10 mi
8:53 AM80 °FSunny.No wind39%30.02 "Hg10 mi
7:53 AM70 °FSunny.No wind57%30.03 "Hg10 mi
6:53 AM58 °FPassing clouds.No wind78%30.03 "Hg10 mi
5:53 AM59 °FClear.No wind75%30.01 "Hg10 mi
4:53 AM57 °FClear.No wind81%30.01 "Hg10 mi
3:53 AM61 °FClear.No wind72%30.01 "Hg10 mi
2:53 AM59 °FClear.No wind78%30.01 "Hg10 mi
1:53 AM62 °FClear.No wind73%30.02 "Hg10 mi
Weather by CustomWeather, © 2016

See weather overviewHow to use our weather pages